Home   Weather   New Haven   Past weeks

Flag for USA Past Weather in New Haven, Connecticut, USA — Yesterday and Last 2 Weeks

Now
63 °F

More clouds than sun.


Feels Like: 63 °F
Forecast: 56 / 66 °F
Wind: 14 mph from Northeast

Location: Tweed-New Haven Airport

Current Time: Sep 29, 2016 at 11:23:00 AM

Latest Report: Sep 29, 2016 at 10:53 AM


Visibility: 10 mi

Pressure: 30.39 "Hg

Humidity: 58%

Dew Point: 48 °F

Location of New HavenLocation

Past Weather in New Haven — Graph

°F

New Haven Temperature Yesterday

Maximum temperature yesterday: 68 °F (at 10:53 AM)
Minimum temperature yesterday: 56 °F (at 11:53 PM)
Average temperature yesterday: 61 °F

High & Low Weather Summary for the Past Weeks

 TemperatureHumidityPressure
High85 °F (Sep 14, 3:53 PM)100% (Sep 23, 7:53 AM)30.38 "Hg (Sep 23, 7:53 AM)
Low43 °F (Sep 26, 5:53 AM)24% (Sep 25, 3:53 PM)29.88 "Hg (Sep 27, 5:53 AM)
Average66 °F74%30.12 "Hg
* Reported Sep 14 9:53 AM — Sep 29 9:53 AM, New Haven, Weather by CustomWeather, © 2016

Note: Actual official high and low records may vary slightly from our data, if they occured in-between our weather recording intervals... More about our weather records

Advertising

New Haven Weather History for the Previous 24 Hours

Scroll right to see more
 ConditionsComfort  
Time TempWeatherWind HumidityBarometerVisibility
9:53 AM
Thu, Sep 29
59 °FMore clouds than sun.16 mph69%30.38 "Hg10 mi
8:53 AM58 °FOvercast.13 mph75%30.38 "Hg10 mi
7:53 AM58 °FOvercast.8 mph75%30.37 "Hg10 mi
6:53 AM57 °FOvercast.9 mph78%30.35 "Hg10 mi
5:53 AM58 °FOvercast.12 mph75%30.33 "Hg10 mi
5:00 AM58 °FMostly cloudy.12 mph75%30.33 "Hg10 mi
3:53 AM58 °FMostly cloudy.16 mph78%30.30 "Hg10 mi
2:53 AM59 °FMostly cloudy.10 mph75%30.29 "Hg10 mi
1:53 AM59 °FOvercast.10 mph78%30.29 "Hg10 mi
12:53 AM58 °FOvercast.13 mph84%30.28 "Hg10 mi
11:53 PM
Wed, Sep 28
56 °FOvercast.10 mph90%30.29 "Hg10 mi
10:53 PM57 °FOvercast.12 mph81%30.29 "Hg10 mi
9:53 PM58 °FMostly cloudy.14 mph78%30.27 "Hg10 mi
8:53 PM58 °FMostly cloudy.13 mph78%30.26 "Hg10 mi
7:53 PM58 °FOvercast.13 mph75%30.24 "Hg10 mi
6:53 PM59 °FMostly cloudy.13 mph75%30.21 "Hg10 mi
5:53 PM60 °FOvercast.14 mph75%30.19 "Hg10 mi
4:53 PM62 °FOvercast.16 mph73%30.18 "Hg10 mi
3:53 PM63 °FOvercast.10 mph68%30.18 "Hg10 mi
2:53 PM64 °FOvercast.12 mph65%30.18 "Hg10 mi
1:53 PM64 °FOvercast.10 mph68%30.15 "Hg10 mi
12:53 PM65 °FOvercast.14 mph66%30.15 "Hg10 mi
12:00 PM66 °FOvercast.10 mph65%30.15 "Hg10 mi
Weather by CustomWeather, © 2016

See weather overviewHow to use our weather pages